Time,TemperatureF,DewpointF,PressureIn,WindDirection,WindDirectionDegrees,WindSpeedMPH,WindSpeedGustMPH,Humidity,HourlyPrecipIn,Conditions,Clouds,dailyrainin,SoftwareType,DateUTC
2013-11-06 00:18:00,61.4,51.1,30.12,ESE,122,7.0,7.0,69,0.00,CLR,,0.00,WeatherDisplay:10.37,2013-11-06 06:18:00,
2013-11-06 00:23:00,61.5,51.2,30.12,South,176,11.5,11.5,69,0.00,CLR,,0.00,WeatherDisplay:10.37,2013-11-06 06:23:00,
2013-11-06 00:28:00,61.5,51.2,30.12,South,183,10.4,10.4,69,0.00,CLR,,0.00,WeatherDisplay:10.37,2013-11-06 06:28:00,
2013-11-06 00:33:00,61.4,50.7,30.12,SSW,199,10.4,10.4,68,0.00,CLR,,0.00,WeatherDisplay:10.37,2013-11-06 06:33:00,
2013-11-06 00:38:00,61.4,50.7,30.12,SSW,193,10.4,10.4,68,0.00,CLR,,0.00,WeatherDisplay:10.37,2013-11-06 06:38:00,
2013-11-06 00:45:00,61.3,50.6,30.11,SSE,161,6.9,6.9,68,0.00,CLR,,0.00,WeatherDisplay:10.37,2013-11-06 06:45:00,
2013-11-06 00:50:00,61.2,50.6,30.11,South,189,5.8,5.8,68,0.00,CLR,,0.00,WeatherDisplay:10.37,2013-11-06 06:50:00,
2013-11-06 00:55:00,61.1,50.5,30.11,SSW,192,5.0,5.0,68,0.00,CLR,,0.00,WeatherDisplay:10.37,2013-11-06 06:55:00,
2013-11-06 01:00:00,61.0,50.4,30.11,South,180,6.9,6.9,68,0.00,CLR,,0.00,WeatherDisplay:10.37,2013-11-06 07:00:00,
2013-11-06 01:06:00,60.9,50.3,30.10,SSW,211,8.1,8.1,68,0.00,CLR,,0.00,WeatherDisplay:10.37,2013-11-06 07:06:00,
2013-11-06 01:11:00,60.8,50.2,30.10,South,179,12.7,12.7,68,0.00,CLR,,0.00,WeatherDisplay:10.37,2013-11-06 07:11:00,
2013-11-06 01:16:00,60.8,50.2,30.10,SE,136,5.8,5.8,68,0.00,CLR,,0.00,WeatherDisplay:10.37,2013-11-06 07:16:00,
2013-11-06 01:21:00,60.7,50.1,30.10,SSE,168,11.5,11.5,68,0.00,CLR,,0.00,WeatherDisplay:10.37,2013-11-06 07:21:00,
2013-11-06 01:26:00,60.7,50.1,30.10,NE,36,4.6,4.6,68,0.00,CLR,,0.00,WeatherDisplay:10.37,2013-11-06 07:26:00,
2013-11-06 01:31:00,60.7,50.1,30.10,SSW,211,5.8,5.8,68,0.00,CLR,,0.00,WeatherDisplay:10.37,2013-11-06 07:31:00,
2013-11-06 01:36:00,60.6,50.0,30.10,SSW,193,3.5,3.5,68,0.00,CLR,,0.00,WeatherDisplay:10.37,2013-11-06 07:36:00,
2013-11-06 01:41:00,60.5,49.9,30.10,South,188,6.0,6.0,68,0.00,CLR,,0.00,WeatherDisplay:10.37,2013-11-06 07:41:00,
2013-11-06 01:46:00,60.4,49.8,30.10,South,176,11.5,11.5,68,0.00,CLR,,0.00,WeatherDisplay:10.37,2013-11-06 07:46:00,
2013-11-06 01:51:00,60.4,49.8,30.10,South,175,6.9,6.9,68,0.00,CLR,,0.00,WeatherDisplay:10.37,2013-11-06 07:51:00,
2013-11-06 01:56:00,60.4,49.4,30.09,SSW,201,6.9,6.9,67,0.00,CLR,,0.00,WeatherDisplay:10.37,2013-11-06 07:56:00,
2013-11-06 02:01:00,60.4,49.4,30.09,SW,216,6.0,6.0,67,0.00,CLR,,0.00,WeatherDisplay:10.37,2013-11-06 08:01:00,
2013-11-06 02:06:00,60.3,49.7,30.09,South,182,6.9,6.9,68,0.00,CLR,,0.00,WeatherDisplay:10.37,2013-11-06 08:06:00,
2013-11-06 02:11:00,60.1,49.5,30.09,South,182,4.6,4.6,68,0.00,CLR,,0.00,WeatherDisplay:10.37,2013-11-06 08:11:00,
2013-11-06 02:16:00,60.0,49.4,30.09,South,191,8.0,8.0,68,0.00,CLR,,0.00,WeatherDisplay:10.37,2013-11-06 08:16:00,
2013-11-06 02:21:00,60.0,49.4,30.09,South,191,11.5,11.5,68,0.00,CLR,,0.00,WeatherDisplay:10.37,2013-11-06 08:21:00,
2013-11-06 02:26:00,59.9,49.3,30.09,SSW,209,6.9,6.9,68,0.00,CLR,,0.00,WeatherDisplay:10.37,2013-11-06 08:26:00,
2013-11-06 02:31:00,59.9,49.3,30.09,SSE,159,7.0,7.0,68,0.00,CLR,,0.00,WeatherDisplay:10.37,2013-11-06 08:31:00,
2013-11-06 02:36:00,59.8,49.2,30.09,SSE,161,7.0,7.0,68,0.00,CLR,,0.00,WeatherDisplay:10.37,2013-11-06 08:36:00,
2013-11-06 02:41:00,59.7,49.1,30.09,South,180,3.5,3.5,68,0.00,CLR,,0.00,WeatherDisplay:10.37,2013-11-06 08:41:00,
2013-11-06 02:46:00,59.6,49.0,30.09,ESE,111,6.0,6.0,68,0.00,CLR,,0.00,WeatherDisplay:10.37,2013-11-06 08:46:00,
2013-11-06 02:51:00,59.4,48.8,30.08,SSW,194,10.4,10.4,68,0.00,CLR,,0.00,WeatherDisplay:10.37,2013-11-06 08:51:00,
2013-11-06 02:56:00,59.3,48.7,30.09,SSW,202,9.2,9.2,68,0.00,CLR,,0.00,WeatherDisplay:10.37,2013-11-06 08:56:00,
2013-11-06 03:01:00,59.2,48.6,30.09,SW,215,3.5,3.5,68,0.00,CLR,,0.00,WeatherDisplay:10.37,2013-11-06 09:01:00,
2013-11-06 03:06:00,59.1,48.9,30.09,SE,137,6.9,6.9,69,0.00,CLR,,0.00,WeatherDisplay:10.37,2013-11-06 09:06:00,
2013-11-06 03:11:00,59.0,48.8,30.09,South,184,11.5,11.5,69,0.00,CLR,,0.00,WeatherDisplay:10.37,2013-11-06 09:11:00,
2013-11-06 03:16:00,59.0,48.8,30.09,SSE,156,7.0,7.0,69,0.00,CLR,,0.00,WeatherDisplay:10.37,2013-11-06 09:16:00,
2013-11-06 03:21:00,59.0,48.8,30.09,SSW,201,5.8,5.8,69,0.00,CLR,,0.00,WeatherDisplay:10.37,2013-11-06 09:21:00,
2013-11-06 03:26:00,59.0,48.8,30.08,South,185,4.6,4.6,69,0.00,CLR,,0.00,WeatherDisplay:10.37,2013-11-06 09:26:00,
2013-11-06 03:31:00,58.8,49.0,30.09,South,190,4.6,4.6,70,0.00,CLR,,0.00,WeatherDisplay:10.37,2013-11-06 09:31:00,
2013-11-06 03:36:00,58.7,48.9,30.08,South,187,2.3,2.3,70,0.00,CLR,,0.00,WeatherDisplay:10.37,2013-11-06 09:36:00,
2013-11-06 03:41:00,58.5,48.7,30.08,SSE,161,3.5,3.5,70,0.00,CLR,,0.00,WeatherDisplay:10.37,2013-11-06 09:41:00,
2013-11-06 03:46:00,58.5,48.7,30.08,South,180,3.5,3.5,70,0.00,CLR,,0.00,WeatherDisplay:10.37,2013-11-06 09:46:00,
2013-11-06 03:51:00,58.4,48.7,30.08,South,183,9.2,9.2,70,0.00,CLR,,0.00,WeatherDisplay:10.37,2013-11-06 09:51:00,
2013-11-06 03:56:00,58.3,48.6,30.08,South,175,4.6,4.6,70,0.00,CLR,,0.00,WeatherDisplay:10.37,2013-11-06 09:56:00,
2013-11-06 04:01:00,58.2,48.8,30.08,SE,144,3.5,3.5,71,0.00,CLR,,0.00,WeatherDisplay:10.37,2013-11-06 10:01:00,
2013-11-06 04:06:00,58.1,48.7,30.09,South,187,4.0,4.0,71,0.00,CLR,,0.00,WeatherDisplay:10.37,2013-11-06 10:06:00,
2013-11-06 04:11:00,58.0,48.6,30.09,South,178,10.0,10.0,71,0.00,CLR,,0.00,WeatherDisplay:10.37,2013-11-06 10:11:00,
2013-11-06 04:16:00,58.0,48.6,30.08,South,183,5.0,5.0,71,0.00,CLR,,0.00,WeatherDisplay:10.37,2013-11-06 10:16:00,
2013-11-06 04:21:00,57.9,48.6,30.08,South,182,6.9,6.9,71,0.00,CLR,,0.00,WeatherDisplay:10.37,2013-11-06 10:21:00,
2013-11-06 04:26:00,58.0,48.6,30.08,South,189,4.6,4.6,71,0.00,CLR,,0.00,WeatherDisplay:10.37,2013-11-06 10:26:00,
2013-11-06 04:31:00,58.0,48.6,30.08,SSW,196,5.8,5.8,71,0.00,CLR,,0.00,WeatherDisplay:10.37,2013-11-06 10:31:00,
2013-11-06 04:36:00,58.0,48.6,30.08,South,180,4.6,4.6,71,0.00,CLR,,0.00,WeatherDisplay:10.37,2013-11-06 10:36:00,
2013-11-06 04:41:00,58.0,48.6,30.08,SSW,199,3.5,3.5,71,0.00,CLR,,0.00,WeatherDisplay:10.37,2013-11-06 10:41:00,
2013-11-06 04:46:00,58.0,48.6,30.08,WSW,237,9.2,9.2,71,0.00,CLR,,0.00,WeatherDisplay:10.37,2013-11-06 10:46:00,
2013-11-06 04:51:00,57.9,48.6,30.08,South,180,3.5,3.5,71,0.00,CLR,,0.00,WeatherDisplay:10.37,2013-11-06 10:51:00,
2013-11-06 04:56:00,57.9,48.6,30.08,South,191,5.0,5.0,71,0.00,CLR,,0.00,WeatherDisplay:10.37,2013-11-06 10:56:00,
2013-11-06 05:01:00,57.8,48.8,30.09,SSE,159,3.5,3.5,72,0.00,CLR,,0.00,WeatherDisplay:10.37,2013-11-06 11:01:00,
2013-11-06 05:06:00,57.8,48.8,30.09,SSW,196,4.0,4.0,72,0.00,CLR,,0.00,WeatherDisplay:10.37,2013-11-06 11:06:00,
2013-11-06 05:11:00,57.8,48.8,30.09,SSW,196,4.6,4.6,72,0.00,CLR,,0.00,WeatherDisplay:10.37,2013-11-06 11:11:00,
2013-11-06 05:17:00,57.9,48.9,30.09,SSW,198,3.5,3.5,72,0.00,CLR,,0.00,WeatherDisplay:10.37,2013-11-06 11:17:00,
2013-11-06 05:22:00,58.0,49.0,30.09,South,180,5.8,5.8,72,0.00,CLR,,0.00,WeatherDisplay:10.37,2013-11-06 11:22:00,
2013-11-06 05:27:00,58.0,49.0,30.08,SSE,167,5.0,5.0,72,0.00,CLR,,0.00,WeatherDisplay:10.37,2013-11-06 11:27:00,
2013-11-06 05:32:00,58.0,49.0,30.08,South,176,3.5,3.5,72,0.00,CLR,,0.00,WeatherDisplay:10.37,2013-11-06 11:32:00,
2013-11-06 05:37:00,58.0,49.0,30.08,South,189,4.6,4.6,72,0.00,CLR,,0.00,WeatherDisplay:10.37,2013-11-06 11:37:00,
2013-11-06 05:42:00,58.1,49.1,30.08,South,171,9.2,9.2,72,0.00,CLR,,0.00,WeatherDisplay:10.37,2013-11-06 11:42:00,
2013-11-06 05:47:00,58.2,49.2,30.08,South,191,5.0,5.0,72,0.00,CLR,,0.00,WeatherDisplay:10.37,2013-11-06 11:47:00,
2013-11-06 05:52:00,58.3,49.3,30.08,South,183,11.5,11.5,72,0.00,CLR,,0.00,WeatherDisplay:10.37,2013-11-06 11:52:00,
2013-11-06 05:57:00,58.3,49.3,30.08,South,180,4.0,4.0,72,0.00,CLR,,0.00,WeatherDisplay:10.37,2013-11-06 11:57:00,
2013-11-06 06:02:00,58.3,49.3,30.08,South,179,3.5,3.5,72,0.00,CLR,,0.00,WeatherDisplay:10.37,2013-11-06 12:02:00,
2013-11-06 06:07:00,58.3,49.3,30.08,South,173,6.9,6.9,72,0.00,CLR,,0.00,WeatherDisplay:10.37,2013-11-06 12:07:00,
2013-11-06 06:12:00,58.3,49.3,30.07,South,186,9.2,9.2,72,0.00,CLR,,0.00,WeatherDisplay:10.37,2013-11-06 12:12:00,
2013-11-06 06:17:00,58.3,49.3,30.07,South,175,6.0,6.0,72,0.00,CLR,,0.00,WeatherDisplay:10.37,2013-11-06 12:17:00,
2013-11-06 06:22:00,58.3,49.3,30.07,SSW,192,9.2,9.2,72,0.00,CLR,,0.00,WeatherDisplay:10.37,2013-11-06 12:22:00,
2013-11-06 06:27:00,58.4,49.8,30.07,SSW,207,5.8,5.8,73,0.00,CLR,,0.00,WeatherDisplay:10.37,2013-11-06 12:27:00,
2013-11-06 06:32:00,58.4,49.8,30.08,SSE,165,6.0,6.0,73,0.00,CLR,,0.00,WeatherDisplay:10.37,2013-11-06 12:32:00,
2013-11-06 06:37:00,58.5,49.9,30.08,South,186,4.6,4.6,73,0.00,CLR,,0.00,WeatherDisplay:10.37,2013-11-06 12:37:00,
2013-11-06 06:42:00,58.7,50.1,30.08,SSE,164,5.8,5.8,73,0.00,CLR,,0.00,WeatherDisplay:10.37,2013-11-06 12:42:00,
2013-11-06 06:47:00,58.9,50.3,30.08,SSW,206,6.9,6.9,73,0.00,CLR,,0.00,WeatherDisplay:10.37,2013-11-06 12:47:00,
2013-11-06 06:52:00,59.0,50.4,30.08,South,169,5.8,5.8,73,0.00,CLR,,0.00,WeatherDisplay:10.37,2013-11-06 12:52:00,
2013-11-06 06:57:00,59.0,50.4,30.08,South,184,11.5,11.5,73,0.00,CLR,,0.00,WeatherDisplay:10.37,2013-11-06 12:57:00,
2013-11-06 07:02:00,59.0,50.4,30.08,South,178,6.9,6.9,73,0.00,CLR,,0.00,WeatherDisplay:10.37,2013-11-06 13:02:00,
2013-11-06 07:07:00,59.0,50.4,30.08,SSW,212,11.5,11.5,73,0.00,CLR,,0.00,WeatherDisplay:10.37,2013-11-06 13:07:00,
2013-11-06 07:12:00,59.1,50.5,30.08,South,175,11.5,11.5,73,0.00,CLR,,0.00,WeatherDisplay:10.37,2013-11-06 13:12:00,
2013-11-06 07:17:00,59.3,50.6,30.08,SSE,160,10.0,10.0,73,0.00,CLR,,0.00,WeatherDisplay:10.37,2013-11-06 13:17:00,
2013-11-06 07:22:00,59.5,50.8,30.08,South,171,9.2,9.2,73,0.00,CLR,,0.00,WeatherDisplay:10.37,2013-11-06 13:22:00,
2013-11-06 07:27:00,59.6,50.9,30.08,SSE,159,10.0,10.0,73,0.00,CLR,,0.00,WeatherDisplay:10.37,2013-11-06 13:27:00,
2013-11-06 07:32:00,59.7,51.0,30.08,South,191,9.2,9.2,73,0.00,CLR,,0.00,WeatherDisplay:10.37,2013-11-06 13:32:00,
2013-11-06 07:37:00,59.8,51.5,30.09,South,188,11.5,11.5,74,0.00,CLR,,0.00,WeatherDisplay:10.37,2013-11-06 13:37:00,
2013-11-06 07:42:00,59.9,51.6,30.09,South,191,5.0,5.0,74,0.00,CLR,,0.00,WeatherDisplay:10.37,2013-11-06 13:42:00,
2013-11-06 07:47:00,59.9,51.6,30.09,South,184,7.0,7.0,74,0.00,CLR,,0.00,WeatherDisplay:10.37,2013-11-06 13:47:00,
2013-11-06 07:52:00,60.0,51.7,30.09,SSW,198,6.9,6.9,74,0.00,CLR,,0.00,WeatherDisplay:10.37,2013-11-06 13:52:00,
2013-11-06 07:57:00,60.1,51.8,30.09,South,177,5.8,5.8,74,0.00,CLR,,0.00,WeatherDisplay:10.37,2013-11-06 13:57:00,
2013-11-06 08:02:00,60.2,51.9,30.08,South,177,5.0,5.0,74,0.00,CLR,,0.00,WeatherDisplay:10.37,2013-11-06 14:02:00,
2013-11-06 08:07:00,60.2,51.9,30.09,South,187,9.2,9.2,74,0.00,CLR,,0.00,WeatherDisplay:10.37,2013-11-06 14:07:00,
2013-11-06 08:12:00,60.3,52.0,30.09,South,179,11.5,11.5,74,0.00,CLR,,0.00,WeatherDisplay:10.37,2013-11-06 14:12:00,
2013-11-06 08:17:00,60.3,52.0,30.09,SSW,195,6.0,6.0,74,0.00,CLR,,0.00,WeatherDisplay:10.37,2013-11-06 14:17:00,
2013-11-06 08:22:00,60.4,52.1,30.10,South,171,6.9,6.9,74,0.00,CLR,,0.00,WeatherDisplay:10.37,2013-11-06 14:22:00,
2013-11-06 08:27:00,60.5,52.2,30.10,South,176,6.9,6.9,74,0.00,CLR,,0.00,WeatherDisplay:10.37,2013-11-06 14:27:00,
2013-11-06 08:32:00,60.6,52.3,30.11,South,179,12.0,12.0,74,0.00,CLR,,0.00,WeatherDisplay:10.37,2013-11-06 14:32:00,
2013-11-06 08:38:00,60.6,52.3,30.10,South,178,5.8,5.8,74,0.00,CLR,,0.00,WeatherDisplay:10.37,2013-11-06 14:38:00,
2013-11-06 08:43:00,60.6,52.3,30.10,SSE,153,5.8,5.8,74,0.00,CLR,,0.00,WeatherDisplay:10.37,2013-11-06 14:43:00,
2013-11-06 08:48:00,60.7,52.4,30.10,South,178,5.8,5.8,74,0.00,CLR,,0.00,WeatherDisplay:10.37,2013-11-06 14:48:00,
2013-11-06 08:53:00,60.7,52.4,30.10,South,180,5.8,5.8,74,0.00,CLR,,0.00,WeatherDisplay:10.37,2013-11-06 14:53:00,
2013-11-06 08:58:00,60.8,52.8,30.10,South,182,4.6,4.6,75,0.00,CLR,,0.00,WeatherDisplay:10.37,2013-11-06 14:58:00,
2013-11-06 09:03:00,60.9,52.9,30.10,South,175,3.5,3.5,75,0.00,CLR,,0.00,WeatherDisplay:10.37,2013-11-06 15:03:00,
2013-11-06 09:08:00,61.1,53.1,30.10,South,182,1.2,1.2,75,0.00,CLR,,0.00,WeatherDisplay:10.37,2013-11-06 15:08:00,
2013-11-06 09:13:00,61.3,53.3,30.10,South,183,4.0,4.0,75,0.00,CLR,,0.00,WeatherDisplay:10.37,2013-11-06 15:13:00,
2013-11-06 09:18:00,61.4,53.4,30.10,South,184,6.0,6.0,75,0.00,CLR,,0.00,WeatherDisplay:10.37,2013-11-06 15:18:00,
2013-11-06 09:23:00,61.6,53.2,30.10,SE,124,4.6,4.6,74,0.00,CLR,,0.00,WeatherDisplay:10.37,2013-11-06 15:23:00,
2013-11-06 09:28:00,61.6,53.2,30.09,SSW,198,9.2,9.2,74,0.00,CLR,,0.00,WeatherDisplay:10.37,2013-11-06 15:28:00,
2013-11-06 09:33:00,61.8,53.8,30.09,South,187,4.6,4.6,75,0.00,CLR,,0.00,WeatherDisplay:10.37,2013-11-06 15:33:00,
2013-11-06 09:38:00,62.0,54.0,30.09,South,175,6.9,6.9,75,0.00,CLR,,0.00,WeatherDisplay:10.37,2013-11-06 15:38:00,
2013-11-06 09:43:00,62.2,54.2,30.09,SSE,160,10.4,10.4,75,0.00,CLR,,0.00,WeatherDisplay:10.37,2013-11-06 15:43:00,
2013-11-06 09:48:00,62.1,54.4,30.09,SW,229,5.8,5.8,76,0.00,CLR,,0.00,WeatherDisplay:10.37,2013-11-06 15:48:00,
2013-11-06 09:53:00,62.0,54.3,30.08,South,178,11.5,11.5,76,0.00,CLR,,0.00,WeatherDisplay:10.37,2013-11-06 15:53:00,
2013-11-06 09:58:00,62.1,54.4,30.08,South,176,10.4,10.4,76,0.00,CLR,,0.00,WeatherDisplay:10.37,2013-11-06 15:58:00,
2013-11-06 10:03:00,62.3,54.6,30.08,SSW,211,9.2,9.2,76,0.00,CLR,,0.00,WeatherDisplay:10.37,2013-11-06 16:03:00,
2013-11-06 10:08:00,62.4,54.7,30.08,South,187,11.5,11.5,76,0.00,CLR,,0.00,WeatherDisplay:10.37,2013-11-06 16:08:00,
2013-11-06 10:13:00,62.6,54.9,30.08,South,178,4.6,4.6,76,0.00,CLR,,0.00,WeatherDisplay:10.37,2013-11-06 16:13:00,
2013-11-06 10:18:00,62.6,54.9,30.08,SSW,192,2.3,2.3,76,0.00,CLR,,0.00,WeatherDisplay:10.37,2013-11-06 16:18:00,
2013-11-06 10:23:00,62.6,54.9,30.08,South,183,3.5,3.5,76,0.00,CLR,,0.00,WeatherDisplay:10.37,2013-11-06 16:23:00,
2013-11-06 10:28:00,62.6,54.9,30.08,SSE,168,10.4,10.4,76,0.00,CLR,,0.00,WeatherDisplay:10.37,2013-11-06 16:28:00,
2013-11-06 10:33:00,62.5,55.2,30.08,South,191,7.0,7.0,77,0.00,CLR,,0.00,WeatherDisplay:10.37,2013-11-06 16:33:00,
2013-11-06 10:38:00,62.5,55.5,30.08,SSW,198,5.8,5.8,78,0.00,CLR,,0.00,WeatherDisplay:10.37,2013-11-06 16:38:00,
2013-11-06 10:43:00,62.4,55.4,30.08,South,175,8.1,8.1,78,0.00,CLR,,0.00,WeatherDisplay:10.37,2013-11-06 16:43:00,
2013-11-06 10:48:00,62.4,55.8,30.08,South,186,4.6,4.6,79,0.00,CLR,,0.00,WeatherDisplay:10.37,2013-11-06 16:48:00,
2013-11-06 10:53:00,62.3,56.0,30.08,SSE,159,5.8,5.8,80,0.00,CLR,,0.00,WeatherDisplay:10.37,2013-11-06 16:53:00,
2013-11-06 10:58:00,62.3,56.4,30.08,SSW,207,6.9,6.9,81,0.00,CLR,,0.00,WeatherDisplay:10.37,2013-11-06 16:58:00,
2013-11-06 11:03:00,62.4,56.5,30.08,South,190,4.6,4.6,81,0.00,CLR,,0.00,WeatherDisplay:10.37,2013-11-06 17:03:00,
2013-11-06 11:08:00,62.4,56.5,30.08,South,185,6.9,6.9,81,0.00,CLR,,0.00,WeatherDisplay:10.37,2013-11-06 17:08:00,
2013-11-06 11:13:00,62.2,57.0,30.08,South,174,8.0,8.0,83,0.00,CLR,,0.00,WeatherDisplay:10.37,2013-11-06 17:13:00,
2013-11-06 11:18:00,61.9,57.0,30.08,South,173,11.5,11.5,84,0.00,CLR,,0.00,WeatherDisplay:10.37,2013-11-06 17:18:00,
2013-11-06 11:23:00,61.7,57.1,30.07,South,184,6.9,6.9,85,0.00,CLR,,0.00,WeatherDisplay:10.37,2013-11-06 17:23:00,
2013-11-06 11:28:00,61.6,57.0,30.07,South,169,6.9,6.9,85,0.00,CLR,,0.00,WeatherDisplay:10.37,2013-11-06 17:28:00,
2013-11-06 11:33:00,61.6,57.4,30.06,South,169,4.6,4.6,86,0.00,CLR,,0.00,WeatherDisplay:10.37,2013-11-06 17:33:00,
2013-11-06 11:38:00,61.7,57.8,30.06,SSE,148,3.5,3.5,87,0.00,CLR,,0.00,WeatherDisplay:10.37,2013-11-06 17:38:00,
2013-11-06 11:43:00,61.5,57.6,30.06,South,191,4.6,4.6,87,0.01,RA,,0.01,WeatherDisplay:10.37,2013-11-06 17:43:00,
2013-11-06 11:48:00,61.3,57.4,30.06,South,184,3.5,3.5,87,0.01,RA,,0.01,WeatherDisplay:10.37,2013-11-06 17:48:00,
2013-11-06 11:53:00,61.1,57.5,30.05,South,171,3.5,3.5,88,0.01,CLR,,0.01,WeatherDisplay:10.37,2013-11-06 17:53:00,
2013-11-06 11:58:00,61.1,57.8,30.05,SSE,167,4.6,4.6,89,0.01,CLR,,0.01,WeatherDisplay:10.37,2013-11-06 17:58:00,
2013-11-06 12:03:00,61.2,58.2,30.05,South,186,2.3,2.3,90,0.01,CLR,,0.01,WeatherDisplay:10.37,2013-11-06 18:03:00,
2013-11-06 12:08:00,61.3,58.3,30.05,South,169,4.6,4.6,90,0.01,CLR,,0.01,WeatherDisplay:10.37,2013-11-06 18:08:00,
2013-11-06 12:13:00,61.3,58.3,30.05,SSE,167,3.5,3.5,90,0.01,CLR,,0.01,WeatherDisplay:10.37,2013-11-06 18:13:00,
2013-11-06 12:18:00,61.3,58.3,30.04,SSW,205,4.6,4.6,90,0.02,RA,,0.02,WeatherDisplay:10.37,2013-11-06 18:18:00,
2013-11-06 12:23:00,61.2,58.2,30.04,South,182,3.5,3.5,90,0.02,RA,,0.02,WeatherDisplay:10.37,2013-11-06 18:23:00,
2013-11-06 12:28:00,61.2,58.2,30.04,South,178,3.5,3.5,90,0.02,CLR,,0.02,WeatherDisplay:10.37,2013-11-06 18:28:00,
2013-11-06 12:33:00,61.2,58.6,30.04,SSW,192,5.0,5.0,91,0.02,CLR,,0.02,WeatherDisplay:10.37,2013-11-06 18:33:00,
2013-11-06 12:38:00,61.2,58.6,30.04,South,169,0.0,0.0,91,0.02,CLR,,0.02,WeatherDisplay:10.37,2013-11-06 18:38:00,
2013-11-06 12:43:00,61.2,58.6,30.03,SSE,168,1.2,0.0,91,0.01,CLR,,0.02,WeatherDisplay:10.37,2013-11-06 18:43:00,
2013-11-06 12:48:00,61.3,59.0,30.03,SSE,165,1.2,1.2,92,0.01,CLR,,0.02,WeatherDisplay:10.37,2013-11-06 18:48:00,
2013-11-06 12:53:00,61.3,59.0,30.03,SSW,205,1.2,0.0,92,0.02,RA,,0.03,WeatherDisplay:10.37,2013-11-06 18:53:00,
2013-11-06 12:58:00,61.4,59.1,30.03,South,184,2.3,0.0,92,0.02,RA,,0.03,WeatherDisplay:10.37,2013-11-06 18:58:00,
2013-11-06 13:03:00,61.4,59.1,30.03,South,178,3.5,3.5,92,0.02,CLR,,0.03,WeatherDisplay:10.37,2013-11-06 19:03:00,
2013-11-06 13:08:00,61.5,59.2,30.03,SSE,152,4.6,4.6,92,0.02,CLR,,0.03,WeatherDisplay:10.37,2013-11-06 19:08:00,
2013-11-06 13:13:00,61.5,59.2,30.03,South,191,3.5,3.5,92,0.02,CLR,,0.03,WeatherDisplay:10.37,2013-11-06 19:13:00,
2013-11-06 13:18:00,61.6,59.3,30.03,SSE,167,2.3,0.0,92,0.02,RA,,0.04,WeatherDisplay:10.37,2013-11-06 19:18:00,
2013-11-06 13:23:00,61.5,59.5,30.03,SSE,159,2.3,2.3,93,0.02,RA,,0.04,WeatherDisplay:10.37,2013-11-06 19:23:00,
2013-11-06 13:28:00,61.6,59.6,30.03,South,180,3.5,3.5,93,0.02,CLR,,0.04,WeatherDisplay:10.37,2013-11-06 19:28:00,
2013-11-06 13:33:00,61.6,59.6,30.03,South,180,0.0,0.0,93,0.02,CLR,,0.04,WeatherDisplay:10.37,2013-11-06 19:33:00,
2013-11-06 13:38:00,61.6,59.6,30.03,South,179,2.3,0.0,93,0.02,CLR,,0.04,WeatherDisplay:10.37,2013-11-06 19:38:00,
2013-11-06 13:43:00,61.6,59.6,30.03,South,179,1.2,0.0,93,0.02,CLR,,0.04,WeatherDisplay:10.37,2013-11-06 19:43:00,
2013-11-06 13:48:00,61.6,59.6,30.03,South,179,1.2,0.0,93,0.02,CLR,,0.04,WeatherDisplay:10.37,2013-11-06 19:48:00,
2013-11-06 13:53:00,61.6,59.6,30.03,South,179,0.0,0.0,93,0.01,CLR,,0.04,WeatherDisplay:10.37,2013-11-06 19:53:00,
2013-11-06 13:58:00,61.6,59.6,30.03,South,179,0.0,0.0,93,0.01,CLR,,0.04,WeatherDisplay:10.37,2013-11-06 19:58:00,
2013-11-06 14:03:00,61.6,59.6,30.04,South,179,0.0,0.0,93,0.01,CLR,,0.04,WeatherDisplay:10.37,2013-11-06 20:03:00,
2013-11-06 14:08:00,61.7,60.0,30.03,South,179,0.0,0.0,94,0.02,RA,,0.05,WeatherDisplay:10.37,2013-11-06 20:08:00,
2013-11-06 14:13:00,61.7,60.0,30.04,South,180,0.0,0.0,94,0.03,RA,,0.06,WeatherDisplay:10.37,2013-11-06 20:13:00,
2013-11-06 14:18:00,61.8,60.1,30.04,South,179,0.0,0.0,94,0.03,RA,,0.07,WeatherDisplay:10.37,2013-11-06 20:18:00,
2013-11-06 14:23:00,61.8,60.1,30.04,South,179,0.0,0.0,94,0.04,RA,,0.08,WeatherDisplay:10.37,2013-11-06 20:23:00,
2013-11-06 14:28:00,61.8,60.1,30.04,South,179,0.0,0.0,94,0.07,RA,,0.11,WeatherDisplay:10.37,2013-11-06 20:28:00,
2013-11-06 14:33:00,61.8,60.1,30.04,South,180,0.0,0.0,94,0.09,RA,,0.13,WeatherDisplay:10.37,2013-11-06 20:33:00,
2013-11-06 14:38:00,61.8,60.1,30.04,South,180,0.0,0.0,94,0.09,RA,,0.13,WeatherDisplay:10.37,2013-11-06 20:38:00,
2013-11-06 14:43:00,61.8,60.1,30.04,South,179,0.0,0.0,94,0.10,RA,,0.14,WeatherDisplay:10.37,2013-11-06 20:43:00,
2013-11-06 14:48:00,61.8,60.1,30.04,South,179,1.2,0.0,94,0.10,RA,,0.14,WeatherDisplay:10.37,2013-11-06 20:48:00,
2013-11-06 14:53:00,61.8,60.4,30.04,South,180,0.0,0.0,95,0.10,CLR,,0.14,WeatherDisplay:10.37,2013-11-06 20:53:00,
2013-11-06 14:58:00,61.9,60.5,30.04,South,180,1.2,0.0,95,0.10,CLR,,0.14,WeatherDisplay:10.37,2013-11-06 20:58:00,
2013-11-06 15:03:00,61.9,60.5,30.04,South,183,3.5,3.5,95,0.10,CLR,,0.14,WeatherDisplay:10.37,2013-11-06 21:03:00,
2013-11-06 15:08:00,61.9,60.5,30.04,South,178,3.5,3.5,95,0.09,CLR,,0.14,WeatherDisplay:10.37,2013-11-06 21:08:00,
2013-11-06 15:13:00,61.9,60.5,30.04,South,178,0.0,0.0,95,0.08,CLR,,0.14,WeatherDisplay:10.37,2013-11-06 21:13:00,
2013-11-06 15:18:00,61.9,60.5,30.04,South,178,0.0,0.0,95,0.07,CLR,,0.14,WeatherDisplay:10.37,2013-11-06 21:18:00,
2013-11-06 15:23:00,61.9,60.5,30.04,South,178,0.0,0.0,95,0.06,CLR,,0.14,WeatherDisplay:10.37,2013-11-06 21:23:00,
2013-11-06 15:28:00,61.9,60.5,30.04,South,178,0.0,0.0,95,0.03,CLR,,0.14,WeatherDisplay:10.37,2013-11-06 21:28:00,
2013-11-06 15:33:00,61.9,60.5,30.05,South,178,1.2,0.0,95,0.01,CLR,,0.14,WeatherDisplay:10.37,2013-11-06 21:33:00,
2013-11-06 15:38:00,61.8,60.4,30.05,South,178,0.0,0.0,95,0.01,CLR,,0.14,WeatherDisplay:10.37,2013-11-06 21:38:00,
2013-11-06 15:43:00,61.9,60.5,30.04,South,178,0.0,0.0,95,0.00,CLR,,0.14,WeatherDisplay:10.37,2013-11-06 21:43:00,
2013-11-06 15:48:00,61.9,60.5,30.05,South,178,0.0,0.0,95,0.00,CLR,,0.14,WeatherDisplay:10.37,2013-11-06 21:48:00,
2013-11-06 15:53:00,61.9,60.5,30.05,South,178,0.0,0.0,95,0.01,RA,,0.15,WeatherDisplay:10.37,2013-11-06 21:53:00,
2013-11-06 15:58:00,61.9,60.5,30.06,South,178,0.0,0.0,95,0.01,RA,,0.15,WeatherDisplay:10.37,2013-11-06 21:58:00,
2013-11-06 16:03:00,61.9,60.5,30.05,South,178,0.0,0.0,95,0.01,,,0.15,WeatherDisplay:10.37,2013-11-06 22:03:00,
2013-11-06 16:08:00,61.9,60.5,30.05,South,178,0.0,0.0,95,0.01,CLR,,0.15,WeatherDisplay:10.37,2013-11-06 22:08:00,
2013-11-06 16:14:00,61.9,60.5,30.05,South,178,0.0,0.0,95,0.01,CLR,,0.15,WeatherDisplay:10.37,2013-11-06 22:14:00,
2013-11-06 16:19:00,61.8,60.4,30.05,South,178,0.0,0.0,95,0.01,CLR,,0.15,WeatherDisplay:10.37,2013-11-06 22:19:00,
2013-11-06 16:24:00,61.9,60.5,30.05,South,178,0.0,0.0,95,0.01,CLR,,0.15,WeatherDisplay:10.37,2013-11-06 22:24:00,
2013-11-06 16:29:00,61.9,60.5,30.05,South,178,0.0,0.0,95,0.01,CLR,,0.15,WeatherDisplay:10.37,2013-11-06 22:29:00,
2013-11-06 16:34:00,61.9,60.5,30.04,South,178,0.0,0.0,95,0.01,CLR,,0.15,WeatherDisplay:10.37,2013-11-06 22:34:00,
2013-11-06 16:39:00,62.0,60.6,30.04,South,178,0.0,0.0,95,0.01,CLR,,0.15,WeatherDisplay:10.37,2013-11-06 22:39:00,
2013-11-06 16:44:00,61.9,60.7,30.04,South,178,0.0,0.0,96,0.01,CLR,,0.15,WeatherDisplay:10.37,2013-11-06 22:44:00,
2013-11-06 16:49:00,61.9,60.7,30.05,South,178,0.0,0.0,96,0.01,CLR,,0.15,WeatherDisplay:10.37,2013-11-06 22:49:00,
2013-11-06 16:54:00,61.9,60.7,30.05,South,178,0.0,0.0,96,0.01,CLR,,0.15,WeatherDisplay:10.37,2013-11-06 22:54:00,
2013-11-06 16:59:00,61.9,60.7,30.05,South,178,0.0,0.0,96,0.00,CLR,,0.15,WeatherDisplay:10.37,2013-11-06 22:59:00,
2013-11-06 17:04:00,61.8,60.6,30.05,South,178,0.0,0.0,96,0.00,CLR,,0.15,WeatherDisplay:10.37,2013-11-06 23:04:00,
2013-11-06 17:09:00,61.8,60.6,30.06,South,178,0.0,0.0,96,0.00,CLR,,0.15,WeatherDisplay:10.37,2013-11-06 23:09:00,
2013-11-06 17:14:00,61.8,60.6,30.05,South,178,0.0,0.0,96,0.01,RA,,0.16,WeatherDisplay:10.37,2013-11-06 23:14:00,
2013-11-06 17:19:00,61.8,60.6,30.05,South,178,0.0,0.0,96,0.01,RA,,0.16,WeatherDisplay:10.37,2013-11-06 23:19:00,
2013-11-06 17:24:00,61.8,60.6,30.06,South,178,0.0,0.0,96,0.01,CLR,,0.16,WeatherDisplay:10.37,2013-11-06 23:24:00,
2013-11-06 17:29:00,61.8,60.6,30.06,South,178,0.0,0.0,96,0.02,RA,,0.17,WeatherDisplay:10.37,2013-11-06 23:29:00,
2013-11-06 17:34:00,61.8,60.6,30.06,South,178,0.0,0.0,96,0.02,RA,,0.17,WeatherDisplay:10.37,2013-11-06 23:34:00,
2013-11-06 17:39:00,61.9,60.7,30.07,South,178,0.0,0.0,96,0.03,RA,,0.18,WeatherDisplay:10.37,2013-11-06 23:39:00,
2013-11-06 17:44:00,61.9,60.7,30.06,South,178,0.0,0.0,96,0.04,RA,,0.19,WeatherDisplay:10.37,2013-11-06 23:44:00,
2013-11-06 17:49:00,62.0,60.8,30.07,South,178,0.0,0.0,96,0.04,RA,,0.19,WeatherDisplay:10.37,2013-11-06 23:49:00,
2013-11-06 17:54:00,62.0,60.8,30.07,South,178,0.0,0.0,96,0.04,,,0.19,WeatherDisplay:10.37,2013-11-06 23:54:00,
2013-11-06 17:59:00,62.0,60.8,30.07,South,178,0.0,0.0,96,0.04,CLR,,0.19,WeatherDisplay:10.37,2013-11-06 23:59:00,
2013-11-06 18:04:00,62.0,60.8,30.07,North,355,11.0,11.0,96,0.05,RA,,0.20,WeatherDisplay:10.37,2013-11-07 00:04:00,
2013-11-06 18:09:00,60.9,59.5,30.08,ESE,115,9.2,9.2,95,0.05,RA,,0.20,WeatherDisplay:10.37,2013-11-07 00:09:00,
2013-11-06 18:14:00,59.0,57.3,30.08,SE,136,2.3,2.3,94,0.04,CLR,,0.20,WeatherDisplay:10.37,2013-11-07 00:14:00,
2013-11-06 18:19:00,57.9,56.2,30.09,NNW,348,3.5,3.5,94,0.04,CLR,,0.20,WeatherDisplay:10.37,2013-11-07 00:19:00,
2013-11-06 18:24:00,57.1,55.4,30.09,WSW,244,1.2,1.2,94,0.04,CLR,,0.20,WeatherDisplay:10.37,2013-11-07 00:24:00,
2013-11-06 18:29:00,56.7,55.3,30.09,WNW,292,10.4,10.4,95,0.04,RA,,0.21,WeatherDisplay:10.37,2013-11-07 00:29:00,
2013-11-06 18:34:00,56.4,55.0,30.09,NNW,336,11.5,11.5,95,0.04,RA,,0.21,WeatherDisplay:10.37,2013-11-07 00:34:00,
2013-11-06 18:39:00,56.2,54.8,30.10,NNW,346,3.5,3.5,95,0.03,,,0.21,WeatherDisplay:10.37,2013-11-07 00:39:00,
2013-11-06 18:44:00,56.0,54.6,30.10,NNW,346,3.5,3.5,95,0.02,CLR,,0.21,WeatherDisplay:10.37,2013-11-07 00:44:00,
2013-11-06 18:49:00,55.9,54.5,30.11,SW,215,9.2,9.2,95,0.02,CLR,,0.21,WeatherDisplay:10.37,2013-11-07 00:49:00,
2013-11-06 18:54:00,55.7,54.3,30.12,NNE,22,11.5,11.5,95,0.02,CLR,,0.21,WeatherDisplay:10.37,2013-11-07 00:54:00,
2013-11-06 18:59:00,55.4,54.0,30.13,North,11,9.0,9.0,95,0.02,CLR,,0.21,WeatherDisplay:10.37,2013-11-07 00:59:00,
2013-11-06 19:04:00,55.0,53.6,30.12,North,355,5.8,5.8,95,0.01,CLR,,0.21,WeatherDisplay:10.37,2013-11-07 01:04:00,
2013-11-06 19:09:00,54.6,52.9,30.12,NW,321,11.5,11.5,94,0.01,CLR,,0.21,WeatherDisplay:10.37,2013-11-07 01:09:00,
2013-11-06 19:14:00,54.3,52.6,30.11,North,360,16.1,16.1,94,0.01,CLR,,0.21,WeatherDisplay:10.37,2013-11-07 01:14:00,
2013-11-06 19:19:00,54.1,52.4,30.12,NNW,337,3.5,3.5,94,0.01,CLR,,0.21,WeatherDisplay:10.37,2013-11-07 01:19:00,
2013-11-06 19:24:00,54.1,52.4,30.12,West,275,4.6,4.6,94,0.02,RA,,0.22,WeatherDisplay:10.37,2013-11-07 01:24:00,
2013-11-06 19:29:00,53.9,52.2,30.12,NNW,329,7.0,7.0,94,0.01,RA,,0.22,WeatherDisplay:10.37,2013-11-07 01:29:00,
2013-11-06 19:34:00,53.7,52.0,30.12,NNE,17,7.0,7.0,94,0.01,CLR,,0.22,WeatherDisplay:10.37,2013-11-07 01:34:00,
2013-11-06 19:39:00,53.5,51.8,30.12,NW,321,6.0,6.0,94,0.02,RA,,0.23,WeatherDisplay:10.37,2013-11-07 01:39:00,
2013-11-06 19:44:00,53.3,51.6,30.13,North,355,4.0,4.0,94,0.02,RA,,0.23,WeatherDisplay:10.37,2013-11-07 01:44:00,
2013-11-06 19:49:00,53.2,51.5,30.14,North,360,4.6,4.6,94,0.02,,,0.23,WeatherDisplay:10.37,2013-11-07 01:49:00,
2013-11-06 19:54:00,53.0,51.3,30.14,North,355,10.4,10.4,94,0.02,CLR,,0.23,WeatherDisplay:10.37,2013-11-07 01:54:00,
2013-11-06 19:59:00,52.9,51.2,30.15,North,349,2.3,2.3,94,0.03,RA,,0.24,WeatherDisplay:10.37,2013-11-07 01:59:00,
2013-11-06 20:04:00,52.8,51.1,30.15,SSW,200,2.3,2.3,94,0.03,RA,,0.24,WeatherDisplay:10.37,2013-11-07 02:04:00,
2013-11-06 20:09:00,52.6,50.9,30.15,North,5,11.5,11.5,94,0.04,RA,,0.25,WeatherDisplay:10.37,2013-11-07 02:09:00,
2013-11-06 20:14:00,52.4,50.7,30.15,NNE,24,10.4,10.4,94,0.04,RA,,0.25,WeatherDisplay:10.37,2013-11-07 02:14:00,
2013-11-06 20:19:00,52.2,50.5,30.15,North,5,11.5,11.5,94,0.04,CLR,,0.25,WeatherDisplay:10.37,2013-11-07 02:19:00,
2013-11-06 20:24:00,51.7,50.0,30.15,North,360,5.8,5.8,94,0.03,CLR,,0.25,WeatherDisplay:10.37,2013-11-07 02:24:00,
2013-11-06 20:29:00,51.5,49.8,30.16,NNW,333,10.4,10.4,94,0.03,CLR,,0.25,WeatherDisplay:10.37,2013-11-07 02:29:00,
2013-11-06 20:34:00,51.0,49.3,30.17,NNE,31,13.8,13.8,94,0.03,CLR,,0.25,WeatherDisplay:10.37,2013-11-07 02:34:00,
2013-11-06 20:39:00,50.6,48.9,30.17,ESE,111,5.8,5.8,94,0.02,CLR,,0.25,WeatherDisplay:10.37,2013-11-07 02:39:00,
2013-11-06 20:44:00,50.3,48.6,30.17,NNW,344,9.2,9.2,94,0.02,CLR,,0.25,WeatherDisplay:10.37,2013-11-07 02:44:00,
2013-11-06 20:49:00,50.1,48.4,30.17,NNW,331,4.6,4.6,94,0.02,CLR,,0.25,WeatherDisplay:10.37,2013-11-07 02:49:00,
2013-11-06 20:54:00,50.0,48.3,30.18,South,184,11.5,11.5,94,0.02,CLR,,0.25,WeatherDisplay:10.37,2013-11-07 02:54:00,
2013-11-06 20:59:00,49.9,48.2,30.18,North,355,3.5,3.5,94,0.01,CLR,,0.25,WeatherDisplay:10.37,2013-11-07 02:59:00,
2013-11-06 21:04:00,49.8,48.1,30.18,North,350,3.5,3.5,94,0.01,CLR,,0.25,WeatherDisplay:10.37,2013-11-07 03:04:00,
2013-11-06 21:09:00,49.7,48.0,30.18,NNW,342,10.0,10.0,94,0.00,CLR,,0.25,WeatherDisplay:10.37,2013-11-07 03:09:00,
2013-11-06 21:14:00,49.4,47.5,30.18,North,355,11.5,11.5,93,0.00,CLR,,0.25,WeatherDisplay:10.37,2013-11-07 03:14:00,
2013-11-06 21:19:00,49.2,47.3,30.19,NNW,346,11.5,11.5,93,0.00,CLR,,0.25,WeatherDisplay:10.37,2013-11-07 03:19:00,
2013-11-06 21:24:00,49.0,47.1,30.20,NW,319,9.0,9.0,93,0.00,CLR,,0.25,WeatherDisplay:10.37,2013-11-07 03:24:00,
2013-11-06 21:29:00,48.8,46.9,30.21,North,360,11.0,11.0,93,0.00,CLR,,0.25,WeatherDisplay:10.37,2013-11-07 03:29:00,
2013-11-06 21:34:00,48.7,46.8,30.20,NNW,327,11.5,11.5,93,0.00,CLR,,0.25,WeatherDisplay:10.37,2013-11-07 03:34:00,
2013-11-06 21:39:00,48.6,46.7,30.20,NNW,329,10.0,10.0,93,0.00,CLR,,0.25,WeatherDisplay:10.37,2013-11-07 03:39:00,
2013-11-06 21:44:00,48.5,46.3,30.20,North,10,6.9,6.9,92,0.00,CLR,,0.25,WeatherDisplay:10.37,2013-11-07 03:44:00,
2013-11-06 21:49:00,48.4,46.2,30.21,NW,313,12.7,12.7,92,0.00,CLR,,0.25,WeatherDisplay:10.37,2013-11-07 03:49:00,
2013-11-06 21:54:00,48.3,46.1,30.21,NNW,328,10.4,10.4,92,0.00,CLR,,0.25,WeatherDisplay:10.37,2013-11-07 03:54:00,
2013-11-06 21:59:00,48.1,45.9,30.21,North,355,12.7,12.7,92,0.00,CLR,,0.25,WeatherDisplay:10.37,2013-11-07 03:59:00,
2013-11-06 22:04:00,47.9,45.4,30.22,NNW,338,10.4,10.4,91,0.00,CLR,,0.25,WeatherDisplay:10.37,2013-11-07 04:04:00,
2013-11-06 22:09:00,47.8,45.3,30.22,NNW,344,11.5,11.5,91,0.00,CLR,,0.25,WeatherDisplay:10.37,2013-11-07 04:09:00,
2013-11-06 22:14:00,47.7,45.2,30.22,North,355,11.5,11.5,91,0.00,CLR,,0.25,WeatherDisplay:10.37,2013-11-07 04:14:00,
2013-11-06 22:19:00,47.5,45.0,30.22,North,355,6.9,6.9,91,0.00,CLR,,0.25,WeatherDisplay:10.37,2013-11-07 04:19:00,
2013-11-06 22:24:00,47.2,44.4,30.22,NNW,345,12.7,12.7,90,0.00,CLR,,0.25,WeatherDisplay:10.37,2013-11-07 04:24:00,
2013-11-06 22:29:00,47.0,43.9,30.23,NNE,18,11.5,11.5,89,0.00,CLR,,0.25,WeatherDisplay:10.37,2013-11-07 04:29:00,
2013-11-06 22:34:00,46.9,43.8,30.23,NW,326,10.4,10.4,89,0.00,CLR,,0.25,WeatherDisplay:10.37,2013-11-07 04:34:00,
2013-11-06 22:39:00,46.9,43.8,30.23,North,360,9.2,9.2,89,0.00,CLR,,0.25,WeatherDisplay:10.37,2013-11-07 04:39:00,
2013-11-06 22:44:00,46.8,43.4,30.23,NNE,25,4.6,4.6,88,0.00,CLR,,0.25,WeatherDisplay:10.37,2013-11-07 04:44:00,
2013-11-06 22:49:00,46.8,43.4,30.23,NNE,15,5.8,5.8,88,0.00,CLR,,0.25,WeatherDisplay:10.37,2013-11-07 04:49:00,
2013-11-06 22:54:00,46.8,43.4,30.23,North,360,12.0,12.0,88,0.00,CLR,,0.25,WeatherDisplay:10.37,2013-11-07 04:54:00,
2013-11-06 22:59:00,46.7,43.3,30.23,North,360,5.8,5.8,88,0.00,CLR,,0.25,WeatherDisplay:10.37,2013-11-07 04:59:00,
2013-11-06 23:01:00,46.7,43.3,30.23,NW,306,4.6,4.6,88,0.00,CLR,,0.25,WeatherDisplay:10.37,2013-11-07 05:01:00,
2013-11-06 23:06:00,46.7,43.3,30.23,NNW,336,6.9,6.9,88,0.00,CLR,,0.25,WeatherDisplay:10.37,2013-11-07 05:06:00,
2013-11-06 23:11:00,46.7,43.0,30.23,NNW,343,9.2,9.2,87,0.00,CLR,,0.25,WeatherDisplay:10.37,2013-11-07 05:11:00,
2013-11-06 23:16:00,46.7,43.0,30.23,WNW,302,5.8,5.8,87,0.00,CLR,,0.25,WeatherDisplay:10.37,2013-11-07 05:16:00,
2013-11-06 23:21:00,46.7,43.0,30.24,NW,307,11.5,11.5,87,0.00,CLR,,0.25,WeatherDisplay:10.37,2013-11-07 05:21:00,
2013-11-06 23:26:00,46.7,43.0,30.24,NNW,348,4.6,4.6,87,0.00,CLR,,0.25,WeatherDisplay:10.37,2013-11-07 05:26:00,
2013-11-06 23:31:00,46.7,43.0,30.24,North,349,10.4,10.4,87,0.00,CLR,,0.25,WeatherDisplay:10.37,2013-11-07 05:31:00,
2013-11-06 23:36:00,46.7,43.0,30.24,North,355,5.8,5.8,87,0.00,CLR,,0.25,WeatherDisplay:10.37,2013-11-07 05:36:00,
2013-11-06 23:41:00,46.7,43.0,30.25,North,360,9.2,9.2,87,0.00,CLR,,0.25,WeatherDisplay:10.37,2013-11-07 05:41:00,
2013-11-06 23:46:00,46.6,42.6,30.25,North,355,13.8,13.8,86,0.00,CLR,,0.25,WeatherDisplay:10.37,2013-11-07 05:46:00,
2013-11-06 23:51:00,46.5,42.5,30.25,NNW,340,5.8,5.8,86,0.00,CLR,,0.25,WeatherDisplay:10.37,2013-11-07 05:51:00,
2013-11-06 23:56:00,46.6,42.6,30.25,NNW,348,12.0,12.0,86,0.00,CLR,,0.25,WeatherDisplay:10.37,2013-11-07 05:56:00,